Location: Peterborough
(44.3091°N, 78.3197°W)
Time: 00:17:02
(UTC-05:00)

A-11 Canister half - Visible Passes

Search period start: 10 December 2023 00:00
Search period end: 20 December 2023 00:00
Orbit: 1514 x 1686 km, 47.2° (Epoch: 09 December)

Date Brightness Start Highest point End Pass type
(mag) Time Alt. Az. Time Alt. Az. Time Alt. Az.
10 Dec 9.6 03:15:56 52° E 03:15:56 52° E 03:23:04 10° ESE visible
10 Dec 9.3 05:14:09 39° W 05:17:46 56° SW 05:27:35 10° SE visible
11 Dec 10.0 02:54:28 38° E 02:54:28 38° E 03:00:02 10° E visible
11 Dec 9.1 04:52:41 50° WSW 04:54:49 59° SW 05:04:40 10° SE visible
11 Dec 10.4 06:51:46 10° W 06:58:19 20° SW 07:04:56 10° SSW visible
12 Dec 10.5 02:33:02 28° E 02:33:02 28° E 02:36:59 10° E visible
12 Dec 9.0 04:31:14 60° SW 04:31:51 61° SW 04:41:45 10° SE visible
12 Dec 10.3 06:29:27 12° W 06:35:26 21° SW 06:42:25 10° S visible
13 Dec 10.8 02:11:38 19° E 02:11:38 19° E 02:13:56 10° E visible
13 Dec 9.2 04:09:51 61° S 04:09:51 61° S 04:18:50 10° SE visible
13 Dec 10.2 06:08:04 17° W 06:12:33 23° SW 06:19:51 10° S visible
13 Dec 10.8 19:23:06 10° SSE 19:23:15 10° SSE 19:23:15 10° SSE visible
14 Dec 11.2 01:50:16 12° E 01:50:16 12° E 01:50:53 10° E visible
14 Dec 9.5 03:48:30 52° SSE 03:48:30 52° SSE 03:55:54 10° SE visible
14 Dec 10.1 05:46:43 22° WSW 05:49:40 25° SW 05:57:15 10° S visible
14 Dec 10.6 19:00:59 10° SSE 19:02:03 11° SE 19:02:03 11° SE visible
14 Dec 10.8 20:58:57 10° SSW 21:00:17 15° SSW 21:00:17 15° SSW visible
15 Dec 9.9 03:27:11 39° SE 03:27:11 39° SE 03:32:57 10° SE visible
15 Dec 10.0 05:25:24 26° WSW 05:26:47 26° SW 05:34:38 10° S visible
15 Dec 10.6 18:39:07 10° SE 18:40:50 11° SE 18:40:50 11° SE visible
15 Dec 10.4 20:36:10 10° SSW 20:39:04 22° SSW 20:39:04 22° SSW visible
16 Dec 10.3 03:05:54 29° SE 03:05:54 29° SE 03:10:00 10° SE visible
16 Dec 9.9 05:04:08 28° SW 05:04:08 28° SW 05:11:59 10° S visible
16 Dec 10.6 18:17:57 10° SE 18:19:08 10° ESE 18:19:36 10° ESE visible
16 Dec 10.0 20:13:24 10° SSW 20:17:50 29° S 20:17:50 29° S visible
17 Dec 10.8 02:44:39 20° SE 02:44:39 20° SE 02:47:01 10° SE visible
17 Dec 10.0 04:42:53 28° SSW 04:42:53 28° SSW 04:49:16 10° S visible
17 Dec 9.7 19:50:38 10° SSW 19:56:34 35° S 19:56:34 35° S visible
17 Dec 11.0 21:53:55 10° WSW 21:54:47 13° WSW 21:54:47 13° WSW visible
18 Dec 11.1 02:23:26 12° SE 02:23:26 12° SE 02:24:02 10° ESE visible
18 Dec 10.2 04:21:40 26° SSW 04:21:40 26° SSW 04:26:34 10° S visible
18 Dec 9.5 19:27:53 10° SSW 19:35:16 38° SSE 19:35:16 38° SSE visible
18 Dec 10.6 21:30:59 10° WSW 21:33:29 21° WSW 21:33:29 21° WSW visible
19 Dec 10.5 04:00:27 21° S 04:00:27 21° S 04:03:50 10° SSE visible
19 Dec 9.5 19:05:10 10° SSW 19:13:18 36° SE 19:13:55 36° SE visible
19 Dec 10.2 21:08:03 10° WSW 21:12:09 31° WSW 21:12:09 31° WSW visible
